| time (UTC) | temp F | wind direction | speed MPH | gust MPH | rain 1hr in | rain 24hr in | rain mn in | humidity % | barometer mb |
| 20260506044550 | 48 | 50 | 0.0 | 3.0 | 0.09 | 0.40 | 0.08 | 94 | 1010.2 |
| 20260506043034 | 48 | 101 | 0.0 | 1.0 | 0.11 | 0.38 | 0.05 | 94 | 1010.0 |
| 20260506041512 | 48 | 45 | 0.0 | 2.0 | 0.12 | 0.36 | 0.03 | 94 | 1010.0 |
| 20260506040101 | 48 | 183 | 0.0 | 1.0 | 0.10 | 0.33 | 0.00 | 94 | 1009.9 |
| 20260506034523 | 48 | 183 | 0.0 | 1.0 | 0.09 | 0.31 | 0.31 | 94 | 1009.9 |
| 20260506033007 | 48 | 183 | 0.0 | 1.0 | 0.04 | 0.26 | 0.27 | 94 | 1010.3 |
| 20260506031510 | 48 | 183 | 0.0 | 2.0 | 0.02 | 0.24 | 0.24 | 94 | 1010.4 |
| 20260506030032 | 48 | 188 | 0.0 | 0.0 | 0.01 | 0.23 | 0.23 | 94 | 1010.6 |
| 20260506024535 | 48 | 188 | 0.0 | 1.0 | 0.00 | 0.22 | 0.22 | 93 | 1010.6 |
| 20260506023025 | 48 | 188 | 0.0 | 2.0 | 0.01 | 0.22 | 0.22 | 93 | 1010.5 |
| 20260506021530 | 48 | 188 | 0.0 | 1.0 | 0.02 | 0.22 | 0.22 | 93 | 1010.6 |
| 20260506020010 | 48 | 140 | 0.0 | 2.0 | 0.04 | 0.22 | 0.22 | 93 | 1010.6 |
| 20260506014511 | 48 | 110 | 0.0 | 2.0 | 0.05 | 0.22 | 0.22 | 93 | 1010.5 |
| 20260506013101 | 48 | 35 | 0.0 | 0.0 | 0.06 | 0.21 | 0.21 | 93 | 1010.5 |
| 20260506011600 | 48 | 35 | 0.0 | 0.0 | 0.07 | 0.20 | 0.20 | 92 | 1010.5 |
| 20260506011503 | 48 | 35 | 0.0 | 0.0 | 0.07 | 0.20 | 0.20 | 92 | 1010.6 |
| 20260506010034 | 47 | 35 | 0.0 | 0.0 | 0.06 | 0.18 | 0.18 | 92 | 1010.5 |
| 20260506004537 | 47 | 35 | 0.0 | 0.0 | 0.06 | 0.17 | 0.17 | 92 | 1010.2 |
| 20260506003018 | 47 | 35 | 0.0 | 0.0 | 0.06 | 0.15 | 0.15 | 91 | 1010.0 |
| 20260506001550 | 47 | 35 | 0.0 | 1.0 | 0.05 | 0.13 | 0.13 | 91 | 1010.2 |
| 20260506000054 | 47 | 19 | 0.0 | 2.0 | 0.06 | 0.12 | 0.12 | 91 | 1009.6 |
| 20260505234606 | 47 | 11 | 0.0 | 1.0 | 0.06 | 0.11 | 0.11 | 90 | 1009.4 |
| 20260505233040 | 47 | 360 | 0.0 | 1.0 | 0.05 | 0.09 | 0.10 | 89 | 1009.3 |
| 20260505231542 | 47 | 360 | 0.0 | 1.0 | 0.05 | 0.08 | 0.08 | 89 | 1009.7 |
| 20260505230022 | 48 | 360 | 0.0 | 1.0 | 0.04 | 0.06 | 0.06 | 88 | 1009.8 |
| 20260505224526 | 48 | 360 | 0.0 | 3.0 | 0.02 | 0.04 | 0.05 | 87 | 1009.4 |
| 20260505223017 | 48 | 15 | 0.0 | 4.0 | 0.03 | 0.04 | 0.04 | 85 | 1009.1 |
| 20260505221506 | 49 | 355 | 0.0 | 3.0 | 0.02 | 0.03 | 0.03 | 83 | 1009.5 |
| 20260505220115 | 51 | 13 | 1.0 | 2.0 | 0.01 | 0.02 | 0.02 | 81 | 1008.9 |
| 20260505214510 | 53 | 351 | 1.0 | 9.0 | 0.01 | 0.02 | 0.02 | 79 | 1008.9 |
| 20260505213004 | 56 | 256 | 1.0 | 3.0 | 0.00 | 0.01 | 0.01 | 79 | 1008.4 |
| 20260505211558 | 58 | 289 | 1.0 | 3.0 | 0.00 | 0.01 | 0.01 | 76 | 1007.2 |
| 20260505210046 | 60 | 360 | 1.0 | 4.0 | 0.00 | 0.01 | 0.01 | 75 | 1006.8 |
| 20260505204545 | 62 | 342 | 0.0 | 0.0 | 0.00 | 0.01 | 0.01 | 74 | 1006.6 |
| 20260505203037 | 62 | 342 | 0.0 | 1.0 | 0.00 | 0.01 | 0.01 | 72 | 1006.3 |
| 20260505201537 | 63 | 342 | 0.0 | 4.0 | 0.00 | 0.01 | 0.01 | 70 | 1006.1 |
| 20260505200045 | 64 | 350 | 0.0 | 2.0 | 0.00 | 0.01 | 0.01 | 69 | 1005.9 |
| 20260505194538 | 65 | 247 | 3.0 | 7.0 | 0.00 | 0.01 | 0.01 | 67 | 1005.9 |
| 20260505193041 | 66 | 215 | 2.0 | 10.0 | 0.00 | 0.01 | 0.01 | 65 | 1006.0 |
| 20260505191541 | 67 | 264 | 4.0 | 11.0 | 0.00 | 0.01 | 0.01 | 64 | 1005.7 |
| 20260505190050 | 68 | 242 | 4.0 | 11.0 | 0.00 | 0.01 | 0.01 | 63 | 1005.7 |
| 20260505184528 | 67 | 212 | 4.0 | 14.0 | 0.00 | 0.01 | 0.01 | 65 | 1005.6 |
| 20260505183039 | 67 | 248 | 6.0 | 13.0 | 0.00 | 0.01 | 0.01 | 63 | 1005.6 |
| 20260505181522 | 68 | 294 | 5.0 | 16.0 | 0.00 | 0.01 | 0.01 | 61 | 1005.3 |
| 20260505180029 | 68 | 244 | 5.0 | 12.0 | 0.00 | 0.01 | 0.01 | 63 | 1005.1 |
| 20260505174523 | 67 | 299 | 7.0 | 16.0 | 0.00 | 0.01 | 0.01 | 63 | 1005.4 |
| 20260505173045 | 68 | 252 | 6.0 | 13.0 | 0.00 | 0.01 | 0.01 | 62 | 1005.2 |
| 20260505171539 | 68 | 261 | 4.0 | 16.0 | 0.00 | 0.01 | 0.01 | 63 | 1005.2 |
| 20260505170032 | 68 | 276 | 4.0 | 15.0 | 0.00 | 0.01 | 0.01 | 63 | 1004.6 |
| 20260505164525 | 67 | 284 | 6.0 | 13.0 | 0.00 | 0.01 | 0.01 | 66 | 1004.7 |
| 20260505163029 | 66 | 251 | 4.0 | 11.0 | 0.00 | 0.01 | 0.01 | 65 | 1004.8 |
| 20260505161525 | 66 | 238 | 4.0 | 11.0 | 0.00 | 0.01 | 0.01 | 65 | 1005.1 |
| 20260505153017 | 66 | 288 | 3.0 | 12.0 | 0.00 | 0.01 | 0.01 | 67 | 1004.4 |
| 20260505151536 | 66 | 245 | 3.0 | 11.0 | 0.00 | 0.01 | 0.01 | 66 | 1003.8 |
| 20260505124549 | 67 | 245 | 3.0 | 7.0 | 0.00 | 0.01 | 0.01 | 66 | 1002.9 |
| 20260505123010 | 67 | 263 | 3.0 | 8.0 | 0.00 | 0.01 | 0.01 | 67 | 1002.9 |
| 20260505121512 | 66 | 241 | 2.0 | 6.0 | 0.00 | 0.01 | 0.01 | 68 | 1002.7 |
| 20260505120024 | 66 | 231 | 2.0 | 4.0 | 0.00 | 0.01 | 0.01 | 69 | 1002.6 |
| 20260505114542 | 65 | 222 | 2.0 | 5.0 | 0.00 | 0.01 | 0.01 | 70 | 1002.5 |
| 20260505113038 | 65 | 242 | 3.0 | 7.0 | 0.00 | 0.01 | 0.01 | 70 | 1002.5 |
| 20260505111600 | 64 | 252 | 2.0 | 5.0 | 0.00 | 0.01 | 0.01 | 72 | 1002.2 |
| 20260505101545 | 60 | 241 | 3.0 | 7.0 | 0.00 | 0.01 | 0.01 | 78 | 1001.7 |
| 20260505100041 | 58 | 225 | 2.0 | 5.0 | 0.00 | 0.01 | 0.01 | 82 | 1001.7 |
| 20260505094536 | 58 | 201 | 3.0 | 5.0 | 0.00 | 0.01 | 0.01 | 83 | 1001.5 |
| 20260505093103 | 58 | 180 | 2.0 | 5.0 | 0.00 | 0.01 | 0.01 | 84 | 1001.5 |
| 20260505093002 | 58 | 200 | 2.0 | 5.0 | 0.00 | 0.01 | 0.01 | 84 | 1001.5 |
| 20260505091605 | 58 | 209 | 2.0 | 6.0 | 0.00 | 0.01 | 0.01 | 84 | 1001.6 |
| 20260505090008 | 57 | 194 | 3.0 | 5.0 | 0.00 | 0.01 | 0.01 | 86 | 1001.7 |
| 20260505084535 | 57 | 206 | 2.0 | 6.0 | 0.00 | 0.01 | 0.01 | 88 | 1001.9 |
| 20260505083046 | 57 | 210 | 3.0 | 6.0 | 0.00 | 0.01 | 0.01 | 89 | 1002.1 |
| 20260505081538 | 57 | 217 | 4.0 | 6.0 | 0.00 | 0.01 | 0.01 | 89 | 1002.1 |
| 20260505080038 | 57 | 206 | 2.0 | 5.0 | 0.00 | 0.01 | 0.01 | 89 | 1002.1 |
| 20260505074537 | 57 | 221 | 2.0 | 4.0 | 0.01 | 0.01 | 0.01 | 88 | 1002.3 |
| 20260505073034 | 58 | 255 | 1.0 | 4.0 | 0.01 | 0.01 | 0.01 | 87 | 1002.5 |
| 20260505071517 | 58 | 253 | 1.0 | 8.0 | 0.01 | 0.01 | 0.01 | 86 | 1003.1 |
| 20260505070038 | 59 | 263 | 3.0 | 6.0 | 0.00 | 0.00 | 0.00 | 83 | 1003.0 |
| 20260505064526 | 61 | 236 | 3.0 | 9.0 | 0.00 | 0.00 | 0.00 | 78 | 1002.9 |
| 20260505063012 | 63 | 266 | 3.0 | 9.0 | 0.00 | 0.00 | 0.00 | 71 | 1003.0 |
| 20260505061540 | 63 | 246 | 2.0 | 5.0 | 0.00 | 0.00 | 0.00 | 70 | 1003.1 |
| 20260505060055 | 63 | 239 | 2.0 | 6.0 | 0.00 | 0.00 | 0.00 | 69 | 1002.8 |
| 20260505054608 | 63 | 227 | 2.0 | 5.0 | 0.00 | 0.00 | 0.00 | 69 | 1002.9 |
| 20260505053015 | 64 | 232 | 3.0 | 7.0 | 0.00 | 0.00 | 0.00 | 68 | 1003.0 |
| 20260505051515 | 64 | 234 | 2.0 | 6.0 | 0.00 | 0.00 | 0.00 | 68 | 1003.0 |